Regional Weather Roundup
Issued by NWS Cleveland, OH

Home | Current Version | Previous Version | Graphics & Text | Print | Product List | Glossary Off
Versions: 1 2 3 4 5 6 7 8 9 10 11 12 13 14 15 16 17 18 19 20 21 22 23 24 25 26 27 28 29 30 31 32 33 34 35 36 37 38 39 40 41 42 43 44 45 46 47 48 49 50

000
ASUS41 KCLE 161512
RWRCLE
OHIO REGIONAL WEATHER ROUNDUP
NATIONAL WEATHER SERVICE WILMINGTON, OH
1000 AM EST SAT DEC 16 2017

NOTE: "FAIR" INDICATES FEW OR NO CLOUDS BELOW 12,000 FEET WITH NO
SIGNIFICANT WEATHER AND/OR OBSTRUCTIONS TO VISIBILITY.

OHZ001>008-015>018-024>027-034-035-043-044-161600-
   NORTHWEST OHIO

CITY           SKY/WX    TMP DP  RH WIND       PRES   REMARKS
DEFIANCE       CLOUDY    35  26  69 SW12      29.96R WCI  27
FINDLAY        CLOUDY    36  26  67 SW17      29.96R
TOLEDO EXPRESS CLOUDY    35  28  75 SW7       29.96R WCI  29
TOLEDO EXEC    CLOUDY    35  27  72 SW12      29.97R WCI  27
LIMA           FAIR      35  27  72 SW17G24   29.97R WCI  25
$$

OHZ009>014-019>023-028>033-038-089-161600-
   NORTHEAST OHIO

CITY           SKY/WX    TMP DP  RH WIND       PRES   REMARKS
CLE-HOPKINS    CLOUDY    36  26  67 SW9       30.00R
CLE-LAKEFRONT  CLOUDY    36  25  64 SW17G24   29.97R
CUY CO. ARPT   CLOUDY    36  27  69 SW12G21   29.98R
LORAIN-ELYRIA  CLOUDY    35  22  58 SW16      29.98R WCI  25
ASHTABULA      LGT SNOW  31  27  85 SW12      29.98R FOG     WCI  22
AKRON-CANTON   CLOUDY    33  24  69 SW13      29.99R WCI  24
WOOSTER        CLOUDY    32  25  75 SW14      30.00R WCI  22
MANSFIELD      CLOUDY    34  25  69 SW16G24   29.99R WCI  24
YOUNGSTOWN     CLOUDY    32  23  69 SW12G22   29.98R WCI  23
$$

OHZ042-051>053-060>062-070>072-077>081-161600-
  SOUTHWEST OHIO

CITY           SKY/WX    TMP DP  RH WIND       PRES   REMARKS
CINC-COVINGTON FAIR      36  27  69 SW10      30.08R
CINC-LUNKEN    FAIR      37  27  67 S13       30.12R
HAMILTON       FAIR      38  27  64 S7        30.09R
DAYTON         FAIR      36  27  69 SW18G24   30.04R
WRIGHT-PAT AFB FAIR      37  27  66 SW16      30.04R
DAYTON GENERAL FAIR      35  25  66 S15       30.05R WCI  25
WILMINGTON     FAIR      36  27  69 SW18G25   30.05R
$$

OHZ036-037-039>041-045>050-054>059-063>069-073>076-082>088-161600-
  CENTRAL AND SOUTHEAST OHIO

CITY           SKY/WX    TMP DP  RH WIND       PRES   REMARKS
COLUMBUS       PTSUNNY   36  26  67 SW13      30.06R
OSU AIRPORT    PTSUNNY   35  27  72 SW15      30.05R WCI  25
BOLTON FIELD   CLOUDY    36  27  69 SW14      30.06R
RICKENBACK AFB PTSUNNY   35  25  68 SW14G24   30.07R WCI  25
NEWARK         PTSUNNY   36  25  64 SW13      30.05R
MARION         NOT AVBL
LANCASTER      CLOUDY    36  26  67 SW14G21   30.07R
ZANESVILLE     PTSUNNY   35  24  64 SW12      30.06S WCI  27
NEW PHILLY     PTSUNNY   34  24  67 SW10G21   30.05R WCI  26
$$



USA.gov is the U.S. government's official web portal to all federal, state and local government web resources and services.